Probability
0 0 0 0 0 0 0 0 0 0 0 0 0 0 1 2 3 3 2 2 5 8 11 15 19 19 18 18 21 24 22 18 14 12 11 12 12 11 8 8 8 7 6 6
0 0 0 0 0 0 0 0 0 0 0 0 0 0 0 1 3 3 2 2 5 8 12 16 19 18 18 19 21 23 24 21 17 15 15 15 15 12 11 11 12 10 8 7
0 0 0 0 0 0 0 0 0 0 0 0 0 0 0 0 2 3 4 4 6 9 12 14 15 16 17 18 21 24 26 28 26 24 21 20 18 16 15 15 15 13 10 9
0 0 0 0 0 0 0 0 0 0 0 0 0 0 0 1 2 4 6 7 7 9 12 13 13 14 14 14 18 25 31 34 35 33 30 26 22 20 20 20 17 13 11 10
0 0 0 0 0 0 0 0 0 0 0 0 0 0 0 1 3 5 7 7 8 9 11 13 13 12 12 13 17 25 34 38 39 39 38 33 27 25 25 23 19 14 12 12
0 0 0 0 0 0 0 0 0 0 0 0 0 0 0 1 3 4 6 7 8 8 10 11 10 10 12 14 17 24 33 37 39 41 41 37 32 30 28 24 18 14 12 12
0 0 0 0 0 0 0 0 0 0 0 0 0 0 1 2 3 3 5 6 7 8 9 8 8 10 13 14 16 21 30 36 38 39 39 37 34 31 28 22 16 12 10 9
0 0 0 0 0 0 0 0 0 0 0 0 0 0 1 3 3 3 4 5 6 8 10 9 10 13 14 14 14 19 28 35 37 36 34 32 31 28 25 20 15 12 10 9
0 0 0 0 0 0 0 0 0 0 0 0 0 1 2 3 3 3 3 4 6 9 10 10 11 14 15 14 14 17 24 30 33 31 28 25 24 23 20 18 15 13 12 12
0 0 0 0 0 0 0 0 0 0 0 0 0 2 3 3 3 3 4 5 6 9 12 13 13 14 14 14 14 15 19 23 26 25 22 19 19 18 16 14 13 12 12 11
0 0 0 0 1 1 1 1 0 0 0 0 0 1 3 4 4 3 3 4 7 11 14 16 17 17 16 14 13 14 17 20 21 20 18 16 16 15 15 13 11 11 11 9
0 0 0 1 2 2 2 1 1 1 0 0 0 1 3 4 4 4 5 6 10 15 18 20 22 22 20 16 13 14 17 20 19 17 16 14 13 13 14 13 11 11 10 9
0 0 0 2 3 3 2 2 1 1 1 0 0 2 3 4 4 5 8 10 14 19 22 23 25 24 22 19 16 15 16 18 18 15 13 12 11 11 11 10 10 9 9 9
0 0 0 1 2 3 2 1 0 0 0 0 0 2 3 3 4 7 10 13 15 20 23 24 25 24 22 20 18 17 17 16 15 14 12 11 10 10 9 8 7 8 8 8
0 0 0 0 1 2 2 1 0 0 0 0 0 2 3 3 5 8 11 13 15 18 20 21 21 21 21 21 20 19 18 16 14 13 13 12 10 9 8 7 7 8 8 9
1 1 0 0 1 2 1 0 0 0 0 0 0 1 3 4 5 9 12 14 16 17 17 18 18 19 21 21 21 21 20 17 14 13 13 12 11 9 7 6 7 9 9 9
3 3 1 1 2 3 2 1 1 0 0 0 0 2 4 4 6 9 13 15 17 17 16 17 18 21 22 21 21 22 21 17 13 12 12 11 10 8 6 5 8 9 9 9
6 5 3 2 3 3 3 3 2 1 0 0 1 4 5 6 7 10 13 15 16 17 15 15 19 23 24 22 21 21 19 14 11 9 9 9 9 7 5 5 7 8 9 9
7 7 4 3 3 3 3 3 3 2 1 1 2 6 7 8 8 10 12 13 15 16 15 16 20 25 25 22 20 19 16 12 9 7 7 7 6 5 3 4 6 8 9 8
6 6 4 3 3 3 3 3 4 4 4 4 5 6 8 10 11 11 12 13 16 18 18 20 25 27 25 22 19 17 16 13 9 7 6 6 4 2 1 2 5 8 10 8
4 4 4 3 3 3 4 5 5 6 8 10 10 10 10 12 13 13 13 15 19 22 23 25 28 29 26 20 17 17 16 14 10 7 5 5 3 1 1 2 5 8 8 7
4 4 4 4 4 5 7 9 9 10 12 14 14 14 13 12 13 13 14 16 21 25 27 27 28 29 25 19 17 17 15 11 8 6 5 4 3 2 1 2 5 6 6 5
6 7 7 6 6 7 10 11 12 11 13 15 14 13 12 11 11 12 14 17 21 24 25 25 26 26 23 18 15 15 12 7 4 4 4 4 3 3 3 3 4 4 4 3
9 10 10 7 6 7 8 9 9 8 9 11 11 11 11 10 9 11 14 17 20 21 22 22 22 22 19 16 13 11 9 6 3 2 2 2 2 3 3 3 3 3 2 1
8 9 8 7 6 6 7 7 6 5 5 6 7 9 10 8 8 9 10 13 16 18 19 19 19 19 17 15 12 9 7 5 2 2 2 1 1 3 3 3 2 1 1 0
5 6 7 6 6 7 8 8 7 5 3 3 5 8 9 8 7 7 8 9 13 16 17 18 19 19 17 14 11 8 5 4 3 3 2 1 1 2 3 2 1 0 0 0
Wind_Speed
9 10 10 10 10 7 5 6 5 3 2 4 5 5 4 3 4 5 5 6 6 6 5 5 5 5 6 6 6 6 6 5 4 3 3 2 2 1 1 1 0 0 1 1
10 11 9 6 6 8 9 9 6 4 3 4 4 5 4 3 4 4 5 5 6 6 6 5 5 5 6 6 6 7 6 5 5 4 3 2 1 1 1 1 1 0 1 2
12 5 6 8 9 10 10 10 7 4 4 6 6 8 7 5 4 4 5 5 6 6 6 6 6 6 6 6 6 5 6 6 6 5 4 3 2 1 1 1 1 0 1 1
11 6 7 10 11 11 10 7 7 7 8 6 7 7 6 6 6 5 5 5 5 6 6 6 6 6 6 6 7 6 7 7 6 6 5 4 3 2 1 1 1 1 0 1
9 8 10 11 10 10 7 3 7 8 9 8 8 9 5 6 6 5 4 4 4 4 5 5 6 6 6 6 6 6 6 6 6 6 6 5 3 2 1 1 1 1 1 0
7 6 8 8 7 8 5 6 6 8 10 11 8 9 6 4 4 3 3 3 3 4 4 4 5 5 6 6 6 6 7 6 6 6 5 5 4 3 2 2 1 1 0 0
10 10 7 6 9 10 10 9 8 10 10 8 6 8 4 0 1 2 2 3 4 4 4 4 5 5 6 6 6 7 7 6 5 5 5 4 4 4 4 3 2 1 1 0
11 11 10 8 10 8 12 13 9 7 7 6 7 7 2 2 0 1 2 3 4 4 4 4 5 5 6 6 7 7 7 6 6 5 4 4 4 3 2 2 1 1 1 1
8 7 9 8 8 10 11 11 10 9 9 8 6 5 4 4 3 2 2 3 4 4 4 4 4 4 5 6 6 7 7 6 6 5 4 3 3 2 1 2 2 1 1 1
5 6 8 8 9 9 9 8 7 10 8 10 8 9 5 4 3 3 3 4 4 4 4 4 4 4 4 5 6 6 6 6 5 5 4 3 3 2 2 1 1 1 1 1
8 7 8 10 10 10 10 10 9 9 9 9 8 4 1 2 2 2 3 3 4 4 4 5 4 4 5 5 5 5 5 5 4 4 3 3 3 2 2 2 2 2 1 1
8 7 8 9 7 6 10 10 10 9 9 9 10 4 3 1 0 1 2 2 4 4 4 5 5 5 5 5 5 4 4 4 4 3 3 3 2 2 1 1 2 2 2 2
7 7 9 10 11 9 11 11 11 11 10 10 11 5 4 2 1 2 2 2 3 4 4 5 5 4 4 4 4 4 3 3 3 3 3 3 2 2 1 1 1 2 2 2
6 8 10 10 6 9 11 12 12 13 11 11 12 9 4 4 3 3 2 2 3 4 4 4 4 4 4 4 4 3 3 3 2 2 2 3 2 2 2 1 2 2 2 2
8 10 11 10 8 8 11 12 13 14 13 13 10 10 7 5 4 3 2 3 4 4 4 4 4 4 4 4 3 3 3 2 2 2 3 2 3 2 2 2 2 2 2 3
7 8 10 11 10 11 12 13 13 13 13 13 12 10 5 4 4 3 3 3 4 4 4 4 4 4 4 4 3 3 3 2 2 2 2 2 3 3 3 3 3 2 2 2
7 8 10 10 10 11 14 12 12 12 11 11 12 7 4 5 5 4 3 3 3 3 4 4 4 4 4 3 3 3 2 2 2 2 2 3 3 3 3 3 3 3 3 3
8 9 8 8 9 14 5 3 7 9 9 9 7 6 5 5 4 3 3 3 2 2 4 5 4 4 4 3 3 3 2 3 3 3 3 3 3 3 3 3 3 3 3 3
9 9 8 8 11 11 6 6 7 8 8 6 7 6 4 3 4 4 2 2 2 2 2 3 4 4 4 4 3 3 3 3 3 3 2 2 3 3 3 3 3 3 3 3
8 9 9 9 11 11 5 5 4 6 8 3 4 4 4 5 7 2 1 2 2 2 2 3 3 4 4 4 4 4 3 3 3 2 2 2 2 3 3 3 3 3 3 4
10 10 12 12 12 6 2 4 6 8 1 3 1 2 4 4 3 1 1 2 2 2 3 3 4 4 4 4 4 4 3 3 2 2 2 2 3 3 3 2 2 3 3 3
8 8 10 10 11 6 4 6 5 2 3 1 0 1 1 1 1 1 1 2 2 3 3 4 4 4 4 4 4 4 3 2 2 2 2 2 3 3 3 3 3 3 3 4
6 4 3 4 2 4 3 2 0 1 1 1 1 1 1 1 2 2 1 1 2 2 3 3 4 4 4 4 4 3 2 2 2 2 2 2 3 3 3 3 3 3 3 3
4 3 4 4 3 2 2 2 1 2 2 2 2 2 2 2 2 2 1 1 2 2 2 3 4 4 3 3 3 3 2 2 2 2 2 2 3 3 3 3 3 3 2 2
4 4 5 5 4 3 4 2 0 0 0 1 2 2 2 2 2 1 1 2 2 2 2 3 3 3 3 3 3 3 2 2 3 3 2 3 3 3 2 2 1 2 1 1
6 6 7 5 3 4 3 2 1 1 1 1 2 2 2 2 2 1 2 2 2 2 2 3 3 3 3 3 2 2 2 2 3 2 2 2 2 2 3 2 2 2 0 1
Wind_Direction
190 212 213 210 225 262 250 240 232 213 203 245 235 243 233 209 213 213 206 199 196 194 179 173 177 176 175 174 176 179 182 180 189 189 195 194 190 198 185 188 113 302 319 313
196 218 222 219 218 235 235 237 228 201 174 250 246 250 231 220 221 220 221 213 206 197 178 176 182 179 178 173 173 178 182 176 186 180 185 187 205 199 181 195 109 311 300 291
217 200 199 209 208 222 229 240 243 233 208 218 244 230 213 203 210 216 221 225 219 210 195 185 187 187 180 174 176 182 184 179 184 181 176 167 169 190 175 166 143 271 310 299
224 197 196 211 216 225 228 230 244 236 236 220 236 252 205 207 211 211 210 212 214 200 195 190 186 186 186 181 176 179 175 176 177 180 177 179 185 187 194 199 139 145 333 321
207 200 209 218 220 228 243 229 239 241 242 249 227 254 222 198 223 217 205 207 212 196 190 187 186 181 181 181 173 166 166 170 172 177 177 188 196 192 172 169 123 197 129 318
219 197 223 229 220 221 213 209 219 232 236 237 234 251 244 204 232 235 205 197 203 191 179 177 174 172 171 171 166 159 158 159 164 175 177 183 180 179 169 167 160 188 136 35
200 196 201 219 206 195 211 221 216 213 218 230 203 239 252 316 295 268 227 194 192 187 170 163 162 166 165 166 167 162 156 157 163 169 173 177 186 190 187 194 166 208 249 251
204 195 189 200 217 208 211 230 242 245 237 221 189 233 212 99 40 250 228 184 175 180 170 165 159 156 159 162 163 163 158 159 163 167 172 177 191 199 182 185 203 200 260 313
216 201 173 195 216 229 213 226 249 263 264 260 226 210 207 188 203 202 186 171 176 173 170 167 157 155 155 155 156 161 159 160 163 162 164 173 182 195 193 194 211 223 248 234
238 220 183 186 205 213 238 226 230 242 250 252 240 233 226 192 209 205 200 181 177 169 164 160 160 156 155 152 151 156 160 163 165 168 177 162 159 181 202 207 187 229 223 230
237 228 192 190 207 205 207 213 229 242 253 261 257 235 102 197 226 228 214 184 173 171 170 164 161 155 151 146 151 160 160 164 170 167 156 149 158 179 195 200 215 224 215 200
219 239 225 205 202 233 220 220 222 238 239 247 268 262 103 129 261 260 248 189 171 175 170 159 152 149 149 151 154 161 164 167 166 157 159 163 169 174 193 200 219 208 198 199
199 223 224 202 193 206 219 224 231 240 251 246 251 238 128 137 238 247 243 192 169 174 168 158 153 154 156 157 156 158 164 168 169 158 164 163 179 182 199 206 223 213 196 192
226 229 240 244 232 205 215 222 229 236 241 246 247 252 220 224 248 247 226 201 179 176 169 163 162 160 157 160 159 159 158 165 170 174 179 171 175 181 192 203 207 206 200 196
225 230 236 251 255 236 228 228 226 233 246 255 253 254 258 264 270 272 242 199 186 180 171 170 174 164 165 165 167 163 159 163 174 193 199 188 183 183 196 200 197 201 207 206
221 240 232 235 236 238 238 235 230 232 239 247 252 254 262 264 258 244 227 210 198 187 180 177 177 171 174 176 178 171 167 167 182 206 210 200 198 195 200 203 197 191 206 217
208 227 233 233 225 235 233 229 228 228 233 240 248 253 239 236 248 248 238 218 211 199 184 182 179 176 180 184 184 184 179 181 189 203 206 204 205 205 211 209 196 195 202 204
226 225 235 237 225 235 226 212 231 231 233 241 247 244 248 252 257 248 230 221 214 203 191 186 184 174 179 182 183 183 177 188 196 203 209 211 211 208 211 213 208 204 207 207
226 226 234 232 231 237 214 197 211 226 232 237 239 238 242 231 233 216 202 240 225 208 199 189 185 177 176 185 186 184 189 197 207 213 217 220 215 209 212 213 219 218 212 214
202 224 237 234 239 238 207 157 192 230 229 208 225 237 235 228 238 211 165 210 199 173 179 185 176 169 174 181 182 191 198 208 219 226 236 231 226 218 217 213 225 221 218 218
194 209 226 236 241 238 131 158 191 225 221 98 186 234 244 250 282 341 172 175 170 160 171 175 177 172 172 175 184 199 205 219 234 238 238 231 232 228 219 210 217 221 223 220
214 214 216 228 236 224 129 177 213 339 42 86 142 266 285 310 236 234 195 175 172 170 173 172 175 171 170 179 191 203 213 227 235 239 245 238 236 234 205 203 210 214 221 214
234 263 258 251 269 70 133 155 55 314 285 299 286 279 236 248 242 237 219 182 170 171 173 174 176 170 173 184 198 214 216 217 233 242 247 248 235 227 210 205 206 209 213 228
206 238 244 238 212 182 169 174 230 254 263 282 274 265 243 236 239 231 222 195 193 189 181 182 185 182 180 185 198 206 207 208 218 233 236 236 223 214 206 220 219 219 219 226
261 225 232 234 228 218 205 194 204 198 178 263 276 273 260 253 245 228 227 216 211 204 192 190 194 194 192 188 202 195 187 196 208 219 224 230 226 211 209 220 253 245 242 303
245 248 252 255 238 243 219 217 236 236 246 261 269 272 269 262 250 232 239 231 222 212 202 201 206 205 201 195 201 202 190 193 204 213 225 231 226 216 219 208 198 103 182 126